Weather History for Boonville, MO

Change the Weather History Date:

Monday, May 20, 2013

  Actual Average Record
Temperature  
Mean Temperature 70 °F -  
Max Temperature 90 °F 76 °F 91 °F (1962)
Min Temperature 61 °F 55 °F 35 °F (1968)
Cooling Degree Days 4    
Growing Degree Days 20 (Base 50)    
Moisture  
Dew Point 62 °F    
Average Humidity 85    
Maximum Humidity 98    
Minimum Humidity 58    
Precipitation  
Precipitation 2.03 in - - ()
Sea Level Pressure  
Sea Level Pressure 29.75 in    
Wind  
Wind Speed 9 mph (South)    
Max Wind Speed 20 mph    
Max Gust Speed 33 mph    
Visibility 9 miles    
Events Rain , Thunderstorm    
Averages and records for this station are not official NWS values.
T = Trace of Precipitation, MM = Missing Value Source: NWS Daily Summary

Daily Weather History Graph

Daily Weather History Graph

Search for Another Location

Airport:

Trip Planner

Search our weather history database for the weather conditions in past years. The results will help you decide how hot, cold, wet, or windy it might be!

Date:

Astronomy

May. 20, 2013 Rise Set
Actual Time 5:53 AM CDT 8:21 PM CDT
Civil Twilight 5:23 AM CDT 8:51 PM CDT
Nautical Twilight 4:45 AM CDT 9:29 PM CDT
Astronomical Twilight 4:03 AM CDT 10:11 PM CDT
Moon 3:31 PM CDT (5/20) 2:46 AM CDT (5/20)
Length of Visible Light 15h 28m
Length of Day
14h 27m
Waxing Gibbous, 75% of the Moon is Illuminated
May 20
Waxing Gibbous
May 24
Full
May 31
Last Quarter
Jun 8
New
Jun 16
First Quarter

Hourly Weather History & Observations

Time (CDT) Temp. Dew Point Humidity Pressure Visibility Wind Dir Wind Speed Gust Speed Precip Events Conditions
12:15 AM 63.7 °F 59.7 °F 87% 29.80 in 5.0 mi West 8.1 mph - 0.14 in Rain , Thunderstorm Thunderstorms and Rain
12:35 AM 61.9 °F 60.3 °F 94% 29.77 in 10.0 mi East 3.5 mph - 0.15 in Rain Rain
12:55 AM 61.9 °F 60.8 °F 96% 29.77 in 10.0 mi Calm Calm - 0.16 in Rain , Thunderstorm Light Thunderstorms and Rain
1:15 AM 61.9 °F 61.0 °F 97% 29.79 in 2.5 mi SW 4.6 mph - 0.21 in Rain , Thunderstorm Heavy Thunderstorms and Rain
1:35 AM 61.3 °F 60.4 °F 97% 29.78 in 2.0 mi SE 6.9 mph - 0.32 in Rain , Thunderstorm Thunderstorms and Rain
1:55 AM 61.3 °F 60.8 °F 98% 29.81 in 10.0 mi SW 5.8 mph - 0.33 in Rain , Thunderstorm Rain
2:15 AM 61.9 °F 61.0 °F 97% 29.80 in 7.0 mi SW 11.5 mph 19.6 mph 0.02 in Rain , Thunderstorm Thunderstorms and Rain
2:35 AM 62.4 °F 61.0 °F 95% 29.78 in 7.0 mi West 8.1 mph - 0.07 in Rain , Thunderstorm Thunderstorms and Rain
2:55 AM 62.8 °F 60.8 °F 93% 29.74 in 7.0 mi South 10.4 mph 21.9 mph 0.13 in Rain , Thunderstorm Heavy Thunderstorms and Rain
3:15 AM 63.3 °F 60.3 °F 90% 29.75 in 10.0 mi SSW 4.6 mph - 0.01 in Rain Light Rain
3:35 AM 63.0 °F 60.4 °F 91% 29.72 in 10.0 mi SSE 5.8 mph - 0.03 in Rain Light Rain
3:55 AM 62.6 °F 60.4 °F 93% 29.70 in 10.0 mi South 5.8 mph - 0.04 in Rain Light Rain
4:35 AM 62.4 °F 60.6 °F 94% 29.73 in 10.0 mi South 8.1 mph - 0.02 in Rain Rain
4:55 AM 63.0 °F 60.1 °F 90% 29.76 in 10.0 mi SW 15.0 mph 25.3 mph 0.02 in   Mostly Cloudy
5:15 AM 63.5 °F 59.5 °F 87% 29.81 in 10.0 mi SW 16.1 mph 23.0 mph 0.02 in Rain Light Rain
5:35 AM 62.6 °F 59.9 °F 91% 29.80 in 7.0 mi SSW 11.5 mph 20.7 mph 0.08 in Rain Rain
5:55 AM 62.1 °F 59.9 °F 93% 29.75 in 10.0 mi SSE 10.4 mph - 0.11 in Rain Light Rain
6:15 AM 61.7 °F 59.9 °F 94% 29.74 in 10.0 mi SSE 6.9 mph - N/A Rain Light Rain
6:35 AM 61.7 °F 60.1 °F 94% 29.73 in 10.0 mi SE 13.8 mph - N/A   Scattered Clouds
6:55 AM 61.9 °F 60.4 °F 95% 29.76 in 10.0 mi SSE 11.5 mph 19.6 mph N/A   Clear
7:15 AM 62.1 °F 60.8 °F 96% 29.78 in 10.0 mi South 15.0 mph - N/A   Scattered Clouds
7:35 AM 62.4 °F 60.8 °F 94% 29.78 in 10.0 mi South 8.1 mph - N/A Rain Light Rain
7:55 AM 63.0 °F 61.0 °F 93% 29.73 in 10.0 mi SSE 19.6 mph 29.9 mph 0.01 in Rain Light Rain
8:15 AM 63.1 °F 60.8 °F 92% 29.73 in 10.0 mi SSE 19.6 mph 26.5 mph N/A   Scattered Clouds
8:35 AM 64.2 °F 60.1 °F 86% 29.76 in 10.0 mi South 17.3 mph 33.4 mph N/A Rain Light Rain
8:55 AM 65.7 °F 58.1 °F 77% 29.71 in 10.0 mi SSE 16.1 mph 24.2 mph N/A   Scattered Clouds
9:15 AM 66.0 °F 59.2 °F 79% 29.73 in 10.0 mi South 13.8 mph 21.9 mph N/A   Clear
9:35 AM 68.9 °F 60.3 °F 74% 29.76 in 10.0 mi SSW 8.1 mph 18.4 mph N/A   Clear
9:55 AM 70.3 °F 61.0 °F 72% 29.78 in 10.0 mi South 8.1 mph - N/A   Clear
10:15 AM 71.8 °F 61.7 °F 70% 29.80 in 10.0 mi South 8.1 mph - N/A   Scattered Clouds
10:35 AM 71.6 °F 61.9 °F 71% 29.80 in 10.0 mi SSW 9.2 mph - N/A   Mostly Cloudy
10:55 AM 71.2 °F 62.1 °F 73% 29.87 in 10.0 mi WSW 13.8 mph 18.4 mph 0.03 in Rain , Thunderstorm Heavy Thunderstorms and Rain
11:15 AM 67.3 °F 62.8 °F 85% 29.85 in 7.0 mi SSE 4.6 mph - 0.05 in Rain , Thunderstorm Light Thunderstorms and Rain
11:35 AM 66.4 °F 64.0 °F 92% 29.86 in 4.0 mi SE 8.1 mph - 0.08 in Rain , Thunderstorm Light Thunderstorms and Rain
11:55 AM 68.5 °F 66.0 °F 92% 29.83 in 10.0 mi SE 4.6 mph - 0.13 in   Mostly Cloudy
12:15 PM 71.6 °F 65.1 °F 80% 29.82 in 10.0 mi SE 3.5 mph - N/A   Mostly Cloudy
12:35 PM 72.3 °F 63.3 °F 73% 29.80 in 10.0 mi SE 8.1 mph - N/A   Overcast
12:55 PM 73.4 °F 64.6 °F 74% 29.80 in 10.0 mi SSE 9.2 mph - N/A   Mostly Cloudy
1:55 PM 77.7 °F 63.9 °F 62% 29.78 in 10.0 mi SSE 18.4 mph - N/A   Clear
2:15 PM 78.4 °F 62.8 °F 58% 29.77 in 10.0 mi SE 18.4 mph 25.3 mph N/A   Clear
2:35 PM 78.8 °F 64.2 °F 61% 29.77 in 10.0 mi SSE 18.4 mph 26.5 mph N/A   Clear
2:55 PM 78.8 °F 64.8 °F 62% 29.76 in 10.0 mi SSE 12.7 mph 23.0 mph N/A   Mostly Cloudy
3:15 PM 78.3 °F 65.3 °F 64% 29.76 in 10.0 mi South 10.4 mph 20.7 mph N/A   Overcast
3:35 PM 76.8 °F 65.5 °F 68% 29.74 in 10.0 mi SSE 15.0 mph 19.6 mph N/A   Overcast
3:55 PM 77.9 °F 66.0 °F 67% 29.73 in 10.0 mi SSE 16.1 mph - N/A   Mostly Cloudy
4:15 PM 77.0 °F 65.8 °F 68% 29.73 in 10.0 mi SSE 12.7 mph 18.4 mph N/A Thunderstorm Thunderstorm
4:35 PM 75.6 °F 66.2 °F 73% 29.70 in 10.0 mi SE 10.4 mph - N/A   Mostly Cloudy
4:55 PM 74.5 °F 66.7 °F 77% 29.68 in 10.0 mi SE 5.8 mph - N/A Rain Light Rain
5:15 PM 73.8 °F 67.1 °F 80% 29.69 in 10.0 mi SSE 11.5 mph 17.3 mph N/A Thunderstorm Overcast
5:35 PM 73.8 °F 67.3 °F 80% 29.70 in 10.0 mi South 11.5 mph 21.9 mph N/A Thunderstorm Thunderstorm
5:55 PM 74.5 °F 67.1 °F 78% 29.68 in 10.0 mi SSE 10.4 mph - N/A   Overcast
6:15 PM 70.9 °F 64.8 °F 81% 29.73 in 1.5 mi NNW 6.9 mph 23.0 mph 0.15 in Rain , Thunderstorm Heavy Thunderstorms and Rain
6:35 PM 64.6 °F 63.0 °F 94% 29.74 in 2.5 mi West 9.2 mph 21.9 mph 0.27 in Rain , Thunderstorm Heavy Thunderstorms and Rain
6:55 PM 64.0 °F 62.6 °F 95% 29.71 in 0.8 mi West 8.1 mph 20.7 mph 0.69 in Rain , Thunderstorm Heavy Thunderstorms and Rain
7:15 PM 64.0 °F 61.7 °F 92% 29.71 in 3.0 mi SW 12.7 mph 21.9 mph 0.16 in Rain , Thunderstorm Heavy Thunderstorms and Rain
7:35 PM 63.9 °F 61.9 °F 93% 29.70 in 3.0 mi South 8.1 mph 26.5 mph 0.34 in Rain , Thunderstorm Thunderstorms and Rain
7:55 PM 63.7 °F 62.2 °F 95% 29.72 in 10.0 mi South 11.5 mph 18.4 mph 0.35 in Rain , Thunderstorm Light Thunderstorms and Rain
8:15 PM 64.2 °F 62.2 °F 93% 29.72 in 10.0 mi SSW 13.8 mph 18.4 mph 0.01 in Rain , Thunderstorm Thunderstorms and Rain
8:35 PM 64.9 °F 62.1 °F 90% 29.60 in 10.0 mi SE 11.5 mph - 0.03 in Rain , Thunderstorm Thunderstorms and Rain
8:55 PM 64.4 °F 62.1 °F 92% 29.63 in 10.0 mi SW 8.1 mph 17.3 mph 0.03 in Thunderstorm Thunderstorm
9:15 PM 64.9 °F 61.7 °F 89% 29.68 in 10.0 mi South 5.8 mph - N/A Thunderstorm Clear
9:35 PM 64.8 °F 61.9 °F 90% 29.68 in 10.0 mi South 6.9 mph - N/A   Clear
9:55 PM 64.4 °F 62.1 °F 92% 29.69 in 10.0 mi SSE 10.4 mph - N/A   Clear
10:15 PM 64.4 °F 62.2 °F 93% 29.69 in 10.0 mi SSE 11.5 mph - N/A   Scattered Clouds
10:35 PM 64.0 °F 62.2 °F 94% 29.70 in 10.0 mi South 6.9 mph - N/A   Scattered Clouds
10:55 PM 63.7 °F 62.1 °F 94% 29.70 in 10.0 mi South 8.1 mph - N/A   Clear
11:15 PM 63.5 °F 61.9 °F 94% 29.70 in 10.0 mi South 9.2 mph - N/A   Clear
11:35 PM 64.0 °F 62.1 °F 93% 29.71 in 10.0 mi South 6.9 mph - N/A   Clear
11:55 PM 64.6 °F 62.2 °F 92% 29.71 in 10.0 mi South 4.6 mph - N/A   Clear